EHI
3 3 3 3 3 3 3 3 3 4 4 4 4 4 3 3 3 4 6 8 7 5 2 1 2 2 3 3 1 1 1 0 1 2 2 3 2 1 0 1 0 0 0
3 3 3 3 3 3 4 4 3 3 4 4 4 4 3 3 2 4 6 8 7 5 2 1 1 1 2 3 2 2 1 1 0 1 1 2 2 1 1 2 1 0 0
3 3 3 3 3 4 5 4 2 1 2 3 3 3 3 3 3 4 7 9 7 5 4 4 3 2 3 4 4 4 3 3 2 1 1 1 2 2 3 3 2 1 1
2 3 3 3 4 4 4 2 1 1 1 2 3 3 4 6 6 6 8 9 7 6 7 7 6 5 5 6 6 6 5 5 5 3 2 2 2 2 3 3 3 3 2
2 3 3 3 4 2 1 1 1 1 2 2 2 3 6 8 8 7 7 7 7 8 8 7 7 6 7 7 8 7 7 6 5 4 4 3 2 1 2 2 3 3 3
4 4 3 3 3 1 0 0 0 1 2 2 1 2 6 9 9 8 7 6 5 6 7 9 9 8 8 9 10 9 7 6 6 5 4 3 1 1 1 1 1 2 2
6 6 5 4 3 3 2 1 1 1 2 3 2 2 4 7 8 9 9 7 5 4 5 10 13 12 10 9 10 8 7 7 7 6 4 3 2 1 1 0 0 1 1
9 8 7 6 5 6 7 7 5 5 5 5 4 3 3 3 4 6 8 8 7 5 5 7 13 15 13 11 9 7 7 7 7 6 6 5 4 3 1 0 0 0 0
12 10 9 9 8 9 11 13 12 11 9 7 7 6 4 2 2 3 5 7 8 9 7 7 10 14 15 14 10 7 7 7 7 6 6 6 6 5 3 2 1 0 0
15 13 11 11 11 10 12 15 17 16 13 9 7 6 5 3 4 4 5 7 11 11 10 9 11 13 15 15 11 8 8 8 7 6 6 6 6 6 6 5 3 1 0
17 16 15 15 14 12 14 16 19 19 16 11 8 6 6 6 7 7 6 8 13 13 11 11 12 13 15 13 10 7 7 7 6 6 6 6 6 6 6 5 4 2 1
23 24 24 23 19 17 18 19 20 20 18 14 11 9 8 9 9 9 8 9 12 14 13 13 14 14 13 11 8 6 6 5 4 3 4 5 4 4 4 4 4 3 2
27 30 32 30 25 21 20 21 20 20 18 16 14 11 10 8 8 8 8 8 10 13 14 13 15 16 13 10 7 5 4 3 2 1 2 3 3 2 3 3 3 3 3
25 30 34 32 28 23 22 22 20 18 17 16 15 14 10 8 7 9 9 9 9 11 13 15 17 20 17 11 6 3 2 2 1 0 1 1 1 1 1 2 2 2 2
22 28 33 34 30 25 25 24 20 17 17 17 17 16 13 11 11 12 12 12 12 12 13 15 18 21 19 10 3 2 2 2 1 0 0 0 0 0 0 1 1 1 1
26 30 36 36 32 27 26 25 22 18 19 20 19 18 16 15 15 16 16 16 16 16 15 16 18 19 16 8 3 2 3 2 1 0 0 0 0 0 0 0 0 0 0
33 36 38 37 34 30 28 26 22 20 21 22 21 20 18 17 18 18 17 17 17 17 17 17 17 15 13 9 4 3 2 2 2 1 0 0 0 0 0 0 0 0 0
38 39 38 37 35 34 32 28 22 20 22 23 22 20 19 19 20 19 16 16 17 16 17 16 14 12 12 11 8 5 2 1 1 1 0 0 0 0 0 0 0 0 0
41 40 38 38 38 38 37 33 26 22 23 22 21 21 20 22 22 19 17 16 16 15 16 15 11 10 12 12 10 7 3 1 1 0 0 0 0 0 0 0 0 0 0
41 40 39 39 40 39 38 34 27 24 24 23 22 22 22 22 22 20 18 17 15 15 15 13 11 10 11 10 9 7 4 2 1 0 0 0 0 0 0 0 0 0 0
38 39 38 38 38 36 32 29 25 23 24 23 21 21 20 18 17 16 16 15 14 14 15 14 12 12 11 9 7 5 4 3 1 0 1 1 0 0 0 0 0 0 0
38 38 37 36 35 30 24 20 20 21 22 22 20 19 18 15 12 12 12 11 11 11 12 13 13 13 11 9 7 5 5 3 1 0 1 1 0 0 0 0 0 0 0
38 37 36 34 33 28 19 13 14 19 21 21 20 18 17 14 12 11 10 8 7 7 7 9 12 12 11 10 8 6 5 3 1 0 1 1 0 0 1 1 1 0 0
39 38 36 34 32 26 16 9 9 15 19 20 21 19 17 15 13 11 10 8 8 7 5 6 8 10 10 8 7 5 4 3 1 0 0 1 1 1 3 3 1 0 0
42 40 37 35 33 26 15 7 7 12 16 18 19 18 16 13 11 9 9 11 11 10 8 6 6 6 5 4 4 3 3 1 1 0 0 1 2 3 4 4 2 1 0
44 42 38 36 35 28 16 7 7 12 15 16 17 16 13 11 8 7 10 13 14 12 10 7 5 3 2 1 2 3 2 1 0 0 0 1 3 4 4 3 2 1 0
Wind_Speed
2 3 2 2 3 3 3 2 2 2 2 1 1 2 2 3 4 5 5 11 11 9 9 9 8 8 8 7 7 7 7 6 6 6 7 7 6 6 6 6 6 6 6
3 3 2 1 2 3 3 3 3 2 1 1 1 1 1 2 4 5 6 7 10 9 9 9 8 8 7 7 7 7 6 6 6 6 6 6 6 6 6 6 5 6 6
3 3 2 2 2 2 3 2 3 2 2 2 1 1 1 1 2 4 5 5 5 8 8 8 8 8 8 7 7 6 6 6 6 6 6 6 6 6 5 5 5 5 5
3 2 2 2 1 1 2 2 2 2 1 2 1 1 2 1 2 3 3 4 4 5 7 9 8 8 8 7 7 6 6 6 6 7 7 7 7 7 6 6 6 6 6
3 2 2 2 2 1 1 2 3 2 1 2 2 2 2 2 2 2 3 3 4 5 5 7 8 8 8 7 6 6 6 6 7 7 8 7 7 7 6 6 6 6 6
3 2 2 2 2 2 1 1 2 1 1 1 1 1 1 2 2 2 3 3 3 4 5 6 5 5 7 6 5 6 6 6 6 7 7 7 7 7 6 7 7 7 6
3 1 1 2 1 1 1 1 2 2 1 2 1 1 0 1 1 2 2 2 3 3 3 4 3 3 3 5 4 5 5 5 5 6 5 6 7 7 7 7 7 7 7
3 3 2 2 2 2 2 1 1 1 1 1 1 2 1 0 1 2 2 2 2 2 3 3 3 3 2 3 3 4 3 4 4 4 4 4 4 4 5 5 5 6 7
4 2 3 2 1 2 2 2 2 2 1 1 1 1 2 2 1 1 2 2 2 2 2 2 3 3 4 3 3 3 3 2 2 3 3 3 3 3 3 4 4 5 6
4 3 3 2 1 1 2 2 2 2 2 2 2 1 1 1 2 1 0 1 2 2 1 2 2 3 4 4 4 5 5 4 3 3 2 2 2 2 2 2 2 3 3
3 3 3 2 2 1 1 1 1 1 2 2 2 1 1 1 2 2 2 2 1 1 1 2 2 2 3 4 4 5 6 5 4 3 3 2 2 2 1 1 2 2 2
3 4 4 3 2 2 2 2 2 2 2 2 1 1 1 1 2 2 2 3 2 1 1 1 2 2 3 3 4 7 7 6 4 4 3 3 2 2 1 1 1 2 2
3 3 3 3 2 2 2 2 2 2 2 2 2 2 2 2 1 1 2 2 2 2 2 1 1 2 3 4 4 7 7 7 5 5 4 3 2 1 1 0 1 1 1
2 4 4 3 3 2 2 2 2 3 2 2 3 2 2 2 1 1 2 2 2 2 2 2 2 2 3 3 5 7 5 7 6 5 4 3 2 2 1 2 2 2 2
3 5 4 3 3 2 2 2 1 1 1 2 2 2 2 2 1 1 1 2 2 2 2 3 2 3 3 3 6 4 4 7 7 6 4 4 3 2 2 2 2 3 3
2 4 4 4 3 3 2 2 2 2 2 2 1 1 1 1 1 1 1 2 2 2 1 2 2 2 2 3 6 3 4 9 8 7 6 5 4 3 3 2 2 3 3
3 3 3 3 3 3 3 3 3 3 3 3 2 2 2 2 1 1 1 1 1 2 2 1 2 3 2 3 3 3 4 5 5 8 7 6 5 4 4 3 2 2 2
4 4 4 4 4 4 3 3 4 3 3 3 2 2 2 2 1 1 1 1 1 2 2 3 2 2 3 3 3 4 4 4 4 8 9 8 7 6 5 4 3 2 2
4 4 4 4 4 4 4 4 3 3 3 3 2 2 2 1 2 1 2 1 1 1 2 2 3 2 2 3 3 3 3 3 4 7 9 9 9 8 7 6 5 4 3
4 4 4 3 3 3 3 3 3 3 2 2 2 2 2 2 2 2 2 2 1 1 2 2 2 2 2 2 3 3 3 3 3 4 5 7 9 10 9 8 7 6 5
5 4 4 4 3 3 3 2 2 3 2 2 2 2 1 1 1 1 1 1 1 2 2 2 3 2 3 3 4 3 3 3 3 3 3 4 5 5 6 8 8 8 7
4 4 4 4 4 4 3 3 2 2 2 2 2 2 3 3 3 2 2 1 1 2 2 2 3 3 4 4 4 4 3 3 3 3 3 4 4 5 5 5 9 11 10
4 4 4 4 4 3 4 4 3 3 3 3 3 3 3 3 4 3 3 3 3 3 3 3 3 3 4 4 4 4 4 4 3 3 2 3 3 4 4 6 11 12 11
4 4 5 5 4 4 6 5 5 4 4 3 3 3 3 2 3 3 3 3 3 3 4 3 3 3 3 2 3 4 4 3 3 2 3 3 3 3 3 4 11 12 12
4 4 4 5 5 4 7 7 6 4 4 4 4 4 4 4 4 4 4 4 4 3 3 3 3 3 3 3 3 2 2 2 3 3 3 3 3 2 2 3 7 12 12
3 4 4 4 5 5 8 9 8 4 4 4 3 4 4 4 4 5 5 4 4 4 3 3 3 4 4 5 6 5 3 3 3 2 3 3 3 2 2 2 4 5 6
Wind_Direction
126 125 123 135 149 154 158 165 160 140 141 162 162 136 112 102 115 118 136 154 154 160 164 166 171 176 179 180 187 190 192 194 190 187 191 194 198 199 201 203 207 212 211
121 121 134 149 165 156 152 152 145 140 159 136 97 92 98 109 120 128 140 155 162 166 171 175 180 184 188 190 191 192 193 193 190 187 187 190 196 200 203 204 208 212 212
131 142 149 172 157 139 137 141 133 145 166 153 147 140 112 94 116 129 143 149 160 172 176 179 183 186 187 191 193 193 190 193 193 190 192 197 201 202 205 207 213 217 217
145 158 153 153 155 159 148 140 147 149 164 151 145 148 138 127 136 147 153 155 158 162 180 185 185 185 187 190 191 192 191 191 193 197 203 204 202 203 207 213 220 224 226
154 162 145 136 164 160 151 170 137 147 152 145 152 159 157 144 153 161 158 166 161 155 161 173 180 183 189 194 196 199 199 199 201 204 206 206 207 207 209 216 222 226 229
144 159 143 157 179 153 144 121 123 139 152 173 180 118 140 160 153 156 166 166 153 157 158 159 172 182 189 193 195 201 206 204 202 205 210 214 217 217 217 223 225 226 227
148 156 138 147 177 136 138 155 151 167 182 175 143 103 96 172 157 144 138 136 138 133 130 139 160 164 171 181 191 200 206 206 204 206 210 215 221 223 223 226 228 228 229
157 164 158 172 175 151 157 172 162 161 212 183 147 141 141 40 25 121 129 143 136 132 131 140 140 141 146 138 147 166 184 197 197 197 200 205 211 214 220 225 224 229 233
164 171 162 176 177 171 164 177 188 186 200 227 202 174 168 180 151 80 132 124 118 108 118 128 133 140 134 119 120 120 135 141 157 183 193 201 198 204 215 216 227 236 239
168 171 158 163 183 175 154 195 171 195 192 224 225 220 208 150 151 147 75 114 126 125 123 114 112 114 117 116 114 115 122 116 111 108 118 134 144 138 144 187 225 237 241
170 165 154 160 169 181 176 201 140 211 215 225 228 208 193 172 185 162 175 170 138 127 136 134 135 125 120 119 121 117 119 115 110 103 101 101 107 135 153 192 234 241 250
171 171 161 163 174 185 184 193 201 203 221 234 240 234 211 197 198 177 169 165 160 151 148 143 150 139 126 118 120 123 122 119 114 110 104 100 95 98 120 239 251 253 257
167 166 161 161 180 185 190 188 191 216 216 218 228 237 238 245 208 169 154 155 153 154 162 174 162 140 142 126 127 133 130 130 125 117 108 98 93 85 65 11 326 333 320
158 152 161 171 191 197 194 183 198 206 203 219 229 229 245 258 267 163 163 157 169 177 171 172 149 147 139 140 145 152 142 143 139 133 126 114 99 83 66 62 60 59 67
172 158 169 175 184 200 200 173 203 224 197 217 230 216 230 229 233 222 163 170 179 193 198 179 166 152 145 138 150 157 153 152 153 150 148 140 127 110 94 87 85 88 87
173 162 181 180 181 189 199 197 202 200 206 214 222 224 241 253 229 225 200 220 204 191 205 163 154 146 150 145 153 164 153 153 162 167 164 157 151 143 132 120 116 113 111
179 184 194 189 189 198 203 210 220 205 205 210 214 201 211 242 237 242 218 219 203 172 184 175 140 144 147 153 157 171 169 173 173 177 172 171 168 165 160 153 145 140 136
190 194 193 201 206 203 205 213 229 224 211 212 219 210 218 207 207 251 258 245 214 184 180 180 170 167 177 178 179 197 192 190 179 180 182 183 181 177 172 165 157 155 157
197 197 196 206 213 208 205 211 220 234 220 210 208 211 217 202 212 231 240 236 234 200 173 181 188 172 177 184 192 215 211 208 197 179 186 192 191 183 179 175 171 168 169
194 203 205 209 215 211 209 210 213 219 220 213 193 196 201 203 213 236 229 226 227 206 184 186 190 180 181 195 196 211 220 216 218 197 193 189 191 191 191 187 185 184 185
202 197 202 211 213 217 223 219 230 213 207 205 190 191 173 157 160 213 235 222 209 212 205 198 198 186 193 194 214 222 225 221 223 199 196 194 183 194 197 198 197 195 192
207 199 204 213 219 220 182 189 225 224 204 212 209 204 189 164 162 165 156 148 189 213 219 212 206 205 211 205 214 224 221 219 231 205 196 215 187 194 196 195 195 193 195
207 209 217 216 215 193 188 188 201 223 212 215 221 223 231 202 188 189 198 200 212 231 231 233 234 229 214 204 209 220 223 225 235 208 204 229 204 208 199 191 185 188 192
211 213 221 222 217 208 197 195 202 224 226 217 220 217 218 215 209 209 219 215 220 230 233 230 242 250 232 211 213 220 229 239 249 220 197 230 216 216 206 178 183 187 192
217 219 223 222 223 209 196 196 202 227 229 224 221 217 213 213 204 212 218 225 225 226 227 222 220 221 220 212 219 236 227 232 246 226 202 224 229 220 208 187 192 195 196
227 232 235 230 227 212 196 198 199 225 229 225 221 217 207 203 192 205 220 227 230 229 216 206 216 225 222 216 213 218 221 230 245 236 202 210 224 209 228 207 183 187 200